Location: *
(43.2048°N, 0.1612°E)
Time: 19:48:00
(UTC+00:00)

USA 281 - Pass Details

Date: 30 September 2023
Orbit: 1077 x 1081 km, 106.0° (Epoch: 19 November)

Event Time Altitude Azimuth Distance (km) Brightness Sun altitude
Rises 03:35:02 0° 16° (NNE) 3,890 6.7 -25.8°
Reaches altitude 10° 03:37:50 10° 6° (N) 2,931 5.8 -25.3°
Maximum altitude 03:43:24 30° 309° (NW) 1,818 4.1 -24.4°
Enters shadow 03:43:45 30° 303° (WNW) 1,823 4.1 -24.3°
